Time,TemperatureF,DewpointF,PressureIn,WindDirection,WindDirectionDegrees,WindSpeedMPH,WindSpeedGustMPH,Humidity,HourlyPrecipIn,Conditions,Clouds,dailyrainin,SolarRadiationWatts/m^2,SoftwareType,DateUTC
2013-01-20 00:02:00,24.4,19.4,29.51,NE,39,5.8,5.8,81,0.00,OVC,,0.00,0.0,WeatherDisplay:10.37,2013-01-19 23:02:00,
2013-01-20 00:08:00,24.4,19.4,29.51,NE,42,6.9,6.9,81,0.00,OVC,,0.00,0.0,WeatherDisplay:10.37,2013-01-19 23:08:00,
2013-01-20 00:13:00,24.4,19.4,29.51,NE,56,13.8,13.8,81,0.00,OVC,,0.00,0.0,WeatherDisplay:10.37,2013-01-19 23:13:00,
2013-01-20 00:18:00,24.4,19.4,29.51,NE,40,11.5,11.5,81,0.00,OVC,,0.00,0.0,WeatherDisplay:10.37,2013-01-19 23:18:00,
2013-01-20 00:23:00,24.4,19.4,29.50,ENE,59,8.1,8.1,81,0.00,OVC,,0.00,0.0,WeatherDisplay:10.37,2013-01-19 23:23:00,
2013-01-20 00:28:00,24.4,19.7,29.50,North,360,15.0,15.0,82,0.00,OVC,,0.00,0.0,WeatherDisplay:10.37,2013-01-19 23:28:00,
2013-01-20 00:34:00,24.4,19.7,29.50,NNE,29,13.8,13.8,82,0.00,OVC,,0.00,0.0,WeatherDisplay:10.37,2013-01-19 23:34:00,
2013-01-20 00:39:00,24.3,19.6,29.50,NE,51,13.8,13.8,82,0.00,OVC,,0.00,0.0,WeatherDisplay:10.37,2013-01-19 23:39:00,
2013-01-20 00:44:00,24.3,19.6,29.49,North,9,11.5,11.5,82,0.00,OVC,,0.00,0.0,WeatherDisplay:10.37,2013-01-19 23:44:00,
2013-01-20 00:49:00,24.3,19.6,29.49,North,5,6.9,6.9,82,0.00,OVC,,0.00,0.0,WeatherDisplay:10.37,2013-01-19 23:49:00,
2013-01-20 00:55:00,24.3,19.6,29.49,NNE,18,12.7,12.7,82,0.00,OVC,,0.00,0.0,WeatherDisplay:10.37,2013-01-19 23:55:00,
2013-01-20 01:01:00,24.2,19.5,29.49,NE,34,13.8,13.8,82,0.00,OVC,,0.00,0.0,WeatherDisplay:10.37,2013-01-20 00:01:00,
2013-01-20 01:06:00,24.2,19.5,29.48,ENE,76,11.5,11.5,82,0.00,OVC,,0.00,0.0,WeatherDisplay:10.37,2013-01-20 00:06:00,
2013-01-20 01:11:00,24.1,19.4,29.48,ENE,71,12.7,12.7,82,0.00,OVC,,0.00,0.0,WeatherDisplay:10.37,2013-01-20 00:11:00,
2013-01-20 01:17:00,24.1,19.4,29.48,NNE,31,10.4,10.4,82,0.00,OVC,,0.00,0.0,WeatherDisplay:10.37,2013-01-20 00:17:00,
2013-01-20 01:22:00,24.1,19.4,29.48,NNE,23,16.1,16.1,82,0.00,OVC,,0.00,0.0,WeatherDisplay:10.37,2013-01-20 00:22:00,
2013-01-20 01:27:00,24.1,19.4,29.48,ENE,59,13.8,13.8,82,0.00,OVC,,0.00,0.0,WeatherDisplay:10.37,2013-01-20 00:27:00,
2013-01-20 01:33:00,24.1,19.4,29.48,North,5,11.5,11.5,82,0.00,OVC,,0.00,0.0,WeatherDisplay:10.37,2013-01-20 00:33:00,
2013-01-20 01:38:00,24.1,19.4,29.48,NE,52,6.9,6.9,82,0.00,OVC,,0.00,0.0,WeatherDisplay:10.37,2013-01-20 00:38:00,
2013-01-20 01:43:00,24.0,19.3,29.48,ENE,77,9.2,9.2,82,0.00,OVC,,0.00,0.0,WeatherDisplay:10.37,2013-01-20 00:43:00,
2013-01-20 01:49:00,24.0,19.3,29.48,NE,45,3.5,3.5,82,0.00,OVC,,0.00,0.0,WeatherDisplay:10.37,2013-01-20 00:49:00,
2013-01-20 01:54:00,24.1,19.7,29.48,NE,40,7.0,7.0,83,0.00,OVC,,0.00,0.0,WeatherDisplay:10.37,2013-01-20 00:54:00,
2013-01-20 01:59:00,24.0,19.6,29.48,NE,39,5.8,5.8,83,0.00,OVC,,0.00,0.0,WeatherDisplay:10.37,2013-01-20 00:59:00,
2013-01-20 02:04:00,24.0,19.6,29.48,ENE,57,10.4,10.4,83,0.00,OVC,,0.00,0.0,WeatherDisplay:10.37,2013-01-20 01:04:00,
2013-01-20 02:09:00,24.1,19.7,29.48,NNE,21,7.0,7.0,83,0.00,OVC,,0.00,0.0,WeatherDisplay:10.37,2013-01-20 01:09:00,
2013-01-20 02:15:00,24.0,19.6,29.48,NE,56,15.0,15.0,83,0.00,OVC,,0.00,0.0,WeatherDisplay:10.37,2013-01-20 01:15:00,
2013-01-20 02:20:00,24.0,19.6,29.48,NNE,15,18.4,18.4,83,0.00,OVC,,0.00,0.0,WeatherDisplay:10.37,2013-01-20 01:20:00,
2013-01-20 02:25:00,24.0,19.6,29.48,NNE,28,13.8,13.8,83,0.00,OVC,,0.00,0.0,WeatherDisplay:10.37,2013-01-20 01:25:00,
2013-01-20 02:30:00,23.9,19.5,29.48,ENE,65,11.0,11.0,83,0.00,OVC,,0.00,0.0,WeatherDisplay:10.37,2013-01-20 01:30:00,
2013-01-20 02:35:00,23.8,19.1,29.48,ENE,61,6.9,6.9,82,0.00,OVC,,0.00,0.0,WeatherDisplay:10.37,2013-01-20 01:35:00,
2013-01-20 02:41:00,23.8,19.4,29.48,North,11,10.4,10.4,83,0.00,OVC,,0.00,0.0,WeatherDisplay:10.37,2013-01-20 01:41:00,
2013-01-20 02:46:00,23.8,19.4,29.48,North,5,15.0,15.0,83,0.00,OVC,,0.00,0.0,WeatherDisplay:10.37,2013-01-20 01:46:00,
2013-01-20 02:52:00,23.7,19.3,29.48,NE,45,7.0,7.0,83,0.00,OVC,,0.00,0.0,WeatherDisplay:10.37,2013-01-20 01:52:00,
2013-01-20 02:58:00,23.7,19.3,29.47,NE,35,16.1,16.1,83,0.00,OVC,,0.00,0.0,WeatherDisplay:10.37,2013-01-20 01:58:00,
2013-01-20 03:03:00,23.6,19.2,29.47,NE,46,12.7,12.7,83,0.00,OVC,,0.00,0.0,WeatherDisplay:10.37,2013-01-20 02:03:00,
2013-01-20 03:08:00,23.6,19.2,29.47,NNW,346,10.4,10.4,83,0.00,OVC,,0.00,0.0,WeatherDisplay:10.37,2013-01-20 02:08:00,
2013-01-20 03:14:00,23.6,19.2,29.47,NNE,30,9.2,9.2,83,0.00,OVC,,0.00,0.0,WeatherDisplay:10.37,2013-01-20 02:14:00,
2013-01-20 03:19:00,23.6,19.2,29.47,NE,49,10.4,10.4,83,0.00,OVC,,0.00,0.0,WeatherDisplay:10.37,2013-01-20 02:19:00,
2013-01-20 03:24:00,23.5,19.1,29.47,NE,42,4.6,4.6,83,0.00,OVC,,0.00,0.0,WeatherDisplay:10.37,2013-01-20 02:24:00,
2013-01-20 03:29:00,23.5,19.1,29.47,East,84,6.9,6.9,83,0.00,OVC,,0.00,0.0,WeatherDisplay:10.37,2013-01-20 02:29:00,
2013-01-20 03:35:00,23.5,19.1,29.47,NE,44,7.0,7.0,83,0.00,OVC,,0.00,0.0,WeatherDisplay:10.37,2013-01-20 02:35:00,
2013-01-20 03:40:00,23.5,19.1,29.47,NNE,27,12.7,12.7,83,0.00,OVC,,0.00,0.0,WeatherDisplay:10.37,2013-01-20 02:40:00,
2013-01-20 03:45:00,23.4,19.0,29.47,NNE,22,11.5,11.5,83,0.00,OVC,,0.00,0.0,WeatherDisplay:10.37,2013-01-20 02:45:00,
2013-01-20 03:51:00,23.4,19.0,29.47,North,5,10.4,10.4,83,0.00,OVC,,0.00,0.0,WeatherDisplay:10.37,2013-01-20 02:51:00,
2013-01-20 03:56:00,23.4,19.0,29.47,NE,49,11.5,11.5,83,0.00,OVC,,0.00,0.0,WeatherDisplay:10.37,2013-01-20 02:56:00,
2013-01-20 04:01:00,23.4,19.3,29.46,NNE,30,11.5,11.5,84,0.00,OVC,,0.00,0.0,WeatherDisplay:10.37,2013-01-20 03:01:00,
2013-01-20 04:07:00,23.4,19.3,29.46,NNE,28,9.2,9.2,84,0.00,OVC,,0.00,0.0,WeatherDisplay:10.37,2013-01-20 03:07:00,
2013-01-20 04:12:00,23.4,19.3,29.46,ENE,67,16.1,16.1,84,0.00,OVC,,0.00,0.0,WeatherDisplay:10.37,2013-01-20 03:12:00,
2013-01-20 04:18:00,23.4,19.3,29.46,NNE,13,10.4,10.4,84,0.00,OVC,,0.00,0.0,WeatherDisplay:10.37,2013-01-20 03:18:00,
2013-01-20 04:23:00,23.4,19.3,29.46,ENE,57,12.0,12.0,84,0.00,OVC,,0.00,0.0,WeatherDisplay:10.37,2013-01-20 03:23:00,
2013-01-20 04:28:00,23.4,19.6,29.46,NE,46,9.2,9.2,85,0.00,OVC,,0.00,0.0,WeatherDisplay:10.37,2013-01-20 03:28:00,
2013-01-20 04:34:00,23.4,19.6,29.46,North,360,4.6,4.6,85,0.00,OVC,,0.00,0.0,WeatherDisplay:10.37,2013-01-20 03:34:00,
2013-01-20 04:39:00,23.5,19.7,29.46,North,9,8.0,8.0,85,0.00,OVC,,0.00,0.0,WeatherDisplay:10.37,2013-01-20 03:39:00,
2013-01-20 04:44:00,23.5,19.7,29.46,North,5,11.5,11.5,85,0.00,OVC,,0.00,0.0,WeatherDisplay:10.37,2013-01-20 03:44:00,
2013-01-20 04:50:00,23.5,19.7,29.45,NNE,24,12.7,12.7,85,0.00,OVC,,0.00,0.0,WeatherDisplay:10.37,2013-01-20 03:50:00,
2013-01-20 04:55:00,23.5,19.7,29.45,NNE,14,12.7,12.7,85,0.00,OVC,,0.00,0.0,WeatherDisplay:10.37,2013-01-20 03:55:00,
2013-01-20 05:00:00,23.5,19.7,29.45,North,360,10.0,10.0,85,0.00,OVC,,0.00,0.0,WeatherDisplay:10.37,2013-01-20 04:00:00,
2013-01-20 05:05:00,23.5,19.7,29.45,NNW,331,11.5,11.5,85,0.00,OVC,,0.00,0.0,WeatherDisplay:10.37,2013-01-20 04:05:00,
2013-01-20 05:11:00,23.6,19.8,29.46,NE,37,15.0,15.0,85,0.00,OVC,,0.00,0.0,WeatherDisplay:10.37,2013-01-20 04:11:00,
2013-01-20 05:17:00,23.5,19.7,29.45,North,5,5.0,5.0,85,0.00,OVC,,0.00,0.0,WeatherDisplay:10.37,2013-01-20 04:17:00,
2013-01-20 05:22:00,23.5,19.7,29.46,NNE,17,6.9,6.9,85,0.00,OVC,,0.00,0.0,WeatherDisplay:10.37,2013-01-20 04:22:00,
2013-01-20 05:27:00,23.5,19.7,29.45,North,10,13.8,13.8,85,0.00,OVC,,0.00,0.0,WeatherDisplay:10.37,2013-01-20 04:27:00,
2013-01-20 05:32:00,23.5,19.7,29.45,NNE,19,11.5,11.5,85,0.00,OVC,,0.00,0.0,WeatherDisplay:10.37,2013-01-20 04:32:00,
2013-01-20 05:37:00,23.6,20.0,29.45,North,5,13.0,13.0,86,0.00,OVC,,0.00,0.0,WeatherDisplay:10.37,2013-01-20 04:37:00,
2013-01-20 05:42:00,23.6,20.0,29.45,North,5,4.6,4.6,86,0.00,OVC,,0.00,0.0,WeatherDisplay:10.37,2013-01-20 04:42:00,
2013-01-20 05:47:00,23.6,20.0,29.44,NE,41,6.9,6.9,86,0.00,OVC,,0.00,0.0,WeatherDisplay:10.37,2013-01-20 04:47:00,
2013-01-20 05:52:00,23.6,20.0,29.44,North,9,12.7,12.7,86,0.00,OVC,,0.00,0.0,WeatherDisplay:10.37,2013-01-20 04:52:00,
2013-01-20 05:58:00,23.6,20.0,29.43,North,5,6.0,6.0,86,0.00,OVC,,0.00,0.0,WeatherDisplay:10.37,2013-01-20 04:58:00,
2013-01-20 06:00:00,23.6,20.0,29.44,ENE,57,10.4,10.4,86,0.00,OVC,,0.00,0.0,WeatherDisplay:10.37,2013-01-20 05:00:00,
2013-01-20 06:01:00,23.6,20.0,29.44,NNE,24,10.4,10.4,86,0.00,OVC,,0.00,0.0,WeatherDisplay:10.37,2013-01-20 05:01:00,
2013-01-20 06:03:00,23.5,19.9,29.44,NNE,22,10.4,10.4,86,0.00,OVC,,0.00,0.0,WeatherDisplay:10.37,2013-01-20 05:03:00,
2013-01-20 06:04:00,23.6,20.0,29.44,NNW,336,10.4,10.4,86,0.00,OVC,,0.00,0.0,WeatherDisplay:10.37,2013-01-20 05:04:00,
2013-01-20 06:09:00,23.5,19.9,29.44,NE,45,15.0,15.0,86,0.00,OVC,,0.00,0.0,WeatherDisplay:10.37,2013-01-20 05:09:00,
2013-01-20 06:14:00,23.5,19.9,29.43,North,349,5.8,5.8,86,0.00,OVC,,0.00,0.0,WeatherDisplay:10.37,2013-01-20 05:14:00,
2013-01-20 06:19:00,23.5,19.7,29.43,NNW,348,6.9,6.9,85,0.00,OVC,,0.00,0.0,WeatherDisplay:10.37,2013-01-20 05:19:00,
2013-01-20 06:24:00,23.5,19.7,29.43,NNE,18,6.0,6.0,85,0.00,OVC,,0.00,0.0,WeatherDisplay:10.37,2013-01-20 05:24:00,
2013-01-20 06:29:00,23.5,19.7,29.43,NE,49,4.6,4.6,85,0.00,OVC,,0.00,0.0,WeatherDisplay:10.37,2013-01-20 05:29:00,
2013-01-20 06:35:00,23.4,19.6,29.44,NE,53,10.4,10.4,85,0.00,OVC,,0.00,0.0,WeatherDisplay:10.37,2013-01-20 05:35:00,
2013-01-20 06:40:00,23.4,19.6,29.44,NNE,28,9.2,9.2,85,0.00,OVC,,0.00,0.0,WeatherDisplay:10.37,2013-01-20 05:40:00,
2013-01-20 06:45:00,23.4,19.6,29.44,NE,51,10.4,10.4,85,0.00,OVC,,0.00,0.0,WeatherDisplay:10.37,2013-01-20 05:45:00,
2013-01-20 06:50:00,23.4,19.6,29.44,North,355,11.5,11.5,85,0.00,OVC,,0.00,0.0,WeatherDisplay:10.37,2013-01-20 05:50:00,
2013-01-20 06:55:00,23.4,19.6,29.44,NE,52,12.7,12.7,85,0.00,OVC,,0.00,0.0,WeatherDisplay:10.37,2013-01-20 05:55:00,
2013-01-20 07:01:00,23.4,19.6,29.44,ENE,61,11.0,11.0,85,0.00,OVC,,0.00,0.0,WeatherDisplay:10.37,2013-01-20 06:01:00,
2013-01-20 07:06:00,23.3,19.5,29.44,NE,51,10.4,10.4,85,0.00,OVC,,0.00,0.0,WeatherDisplay:10.37,2013-01-20 06:06:00,
2013-01-20 07:11:00,23.4,19.6,29.44,NE,35,11.5,11.5,85,0.00,OVC,,0.00,0.0,WeatherDisplay:10.37,2013-01-20 06:11:00,
2013-01-20 07:16:00,23.4,19.6,29.44,North,11,12.7,12.7,85,0.00,OVC,,0.00,0.0,WeatherDisplay:10.37,2013-01-20 06:16:00,
2013-01-20 07:21:00,23.4,19.6,29.44,North,351,11.5,11.5,85,0.00,OVC,,0.00,0.0,WeatherDisplay:10.37,2013-01-20 06:21:00,
2013-01-20 07:27:00,23.4,19.6,29.44,ENE,57,6.9,6.9,85,0.00,OVC,,0.00,0.0,WeatherDisplay:10.37,2013-01-20 06:27:00,
2013-01-20 07:32:00,23.4,19.8,29.44,NNE,17,9.2,9.2,86,0.00,OVC,,0.00,0.0,WeatherDisplay:10.37,2013-01-20 06:32:00,
2013-01-20 07:37:00,23.4,19.8,29.44,North,355,10.4,10.4,86,0.00,OVC,,0.00,0.0,WeatherDisplay:10.37,2013-01-20 06:37:00,
2013-01-20 07:42:00,23.4,19.8,29.44,NNE,13,8.1,8.1,86,0.00,OVC,,0.00,0.0,WeatherDisplay:10.37,2013-01-20 06:42:00,
2013-01-20 07:47:00,23.4,19.8,29.44,NE,56,6.9,6.9,86,0.00,OVC,,0.00,0.0,WeatherDisplay:10.37,2013-01-20 06:47:00,
2013-01-20 07:52:00,23.5,19.9,29.44,NE,41,11.0,11.0,86,0.00,OVC,,0.00,0.0,WeatherDisplay:10.37,2013-01-20 06:52:00,
2013-01-20 07:57:00,23.5,19.9,29.43,NNE,21,11.5,11.5,86,0.00,OVC,,0.00,0.0,WeatherDisplay:10.37,2013-01-20 06:57:00,
2013-01-20 08:02:00,23.5,19.9,29.43,NE,38,9.2,9.2,86,0.00,OVC,,0.00,0.0,WeatherDisplay:10.37,2013-01-20 07:02:00,
2013-01-20 08:07:00,23.5,19.9,29.43,NE,42,9.2,9.2,86,0.00,OVC,,0.00,0.0,WeatherDisplay:10.37,2013-01-20 07:07:00,
2013-01-20 08:12:00,23.5,19.9,29.43,North,5,8.1,8.1,86,0.00,OVC,,0.00,0.0,WeatherDisplay:10.37,2013-01-20 07:12:00,
2013-01-20 08:17:00,23.4,19.8,29.43,NE,38,11.5,11.5,86,0.00,OVC,,0.00,0.0,WeatherDisplay:10.37,2013-01-20 07:17:00,
2013-01-20 08:22:00,23.4,19.8,29.43,NE,41,11.5,11.5,86,0.00,OVC,,0.00,0.0,WeatherDisplay:10.37,2013-01-20 07:22:00,
2013-01-20 08:27:00,23.4,19.8,29.43,North,355,6.9,6.9,86,0.00,OVC,,0.00,0.0,WeatherDisplay:10.37,2013-01-20 07:27:00,
2013-01-20 08:33:00,23.4,19.8,29.43,NNE,28,9.2,9.2,86,0.00,OVC,,0.00,0.0,WeatherDisplay:10.37,2013-01-20 07:33:00,
2013-01-20 08:38:00,23.4,19.8,29.43,NNW,344,13.8,13.8,86,0.00,OVC,,0.00,0.0,WeatherDisplay:10.37,2013-01-20 07:38:00,
2013-01-20 08:43:00,23.3,19.7,29.43,NE,53,10.4,10.4,86,0.00,OVC,,0.00,0.0,WeatherDisplay:10.37,2013-01-20 07:43:00,
2013-01-20 08:48:00,23.3,19.7,29.43,NNE,29,6.9,6.9,86,0.00,OVC,,0.00,0.0,WeatherDisplay:10.37,2013-01-20 07:48:00,
2013-01-20 08:53:00,23.3,20.0,29.43,NNE,24,6.9,6.9,87,0.00,OVC,,0.00,5.0,WeatherDisplay:10.37,2013-01-20 07:53:00,
2013-01-20 08:58:00,23.4,20.1,29.43,NNE,29,9.2,9.2,87,0.00,OVC,,0.00,7.0,WeatherDisplay:10.37,2013-01-20 07:58:00,
2013-01-20 09:03:00,23.4,20.1,29.43,NE,42,5.8,5.8,87,0.00,OVC,,0.00,11.0,WeatherDisplay:10.37,2013-01-20 08:03:00,
2013-01-20 09:08:00,23.4,20.1,29.43,NNE,24,9.2,9.2,87,0.00,OVC,,0.00,14.0,WeatherDisplay:10.37,2013-01-20 08:08:00,
2013-01-20 09:13:00,23.5,19.9,29.43,NNE,15,11.5,11.5,86,0.00,OVC,,0.00,21.0,WeatherDisplay:10.37,2013-01-20 08:13:00,
2013-01-20 09:18:00,23.5,19.9,29.43,NE,46,11.5,11.5,86,0.00,OVC,,0.00,23.0,WeatherDisplay:10.37,2013-01-20 08:18:00,
2013-01-20 09:23:00,23.5,19.9,29.43,NNE,13,6.9,6.9,86,0.00,OVC,,0.00,23.0,WeatherDisplay:10.37,2013-01-20 08:23:00,
2013-01-20 09:28:00,23.6,20.0,29.43,ENE,59,10.4,10.4,86,0.00,OVC,,0.00,23.0,WeatherDisplay:10.37,2013-01-20 08:28:00,
2013-01-20 09:33:00,23.6,20.0,29.43,North,360,5.8,5.8,86,0.00,OVC,,0.00,25.0,WeatherDisplay:10.37,2013-01-20 08:33:00,
2013-01-20 09:38:00,23.7,20.1,29.43,ENE,57,11.5,11.5,86,0.00,OVC,,0.00,28.0,WeatherDisplay:10.37,2013-01-20 08:38:00,
2013-01-20 09:43:00,23.7,20.1,29.43,NNE,16,3.5,3.5,86,0.00,OVC,,0.00,26.0,WeatherDisplay:10.37,2013-01-20 08:43:00,
2013-01-20 09:48:00,23.8,20.2,29.43,NNE,17,11.5,11.5,86,0.00,OVC,,0.00,30.0,WeatherDisplay:10.37,2013-01-20 08:48:00,
2013-01-20 09:53:00,23.7,20.1,29.42,NNE,26,11.5,11.5,86,0.00,OVC,,0.00,33.0,WeatherDisplay:10.37,2013-01-20 08:53:00,
2013-01-20 09:58:00,23.7,20.1,29.42,NE,41,11.5,11.5,86,0.00,OVC,,0.00,40.0,WeatherDisplay:10.37,2013-01-20 08:58:00,
2013-01-20 10:03:00,23.7,20.1,29.42,North,9,7.0,7.0,86,0.00,OVC,,0.00,46.0,WeatherDisplay:10.37,2013-01-20 09:03:00,
2013-01-20 10:08:00,23.8,20.2,29.42,NNE,30,13.8,13.8,86,0.00,OVC,,0.00,47.0,WeatherDisplay:10.37,2013-01-20 09:08:00,
2013-01-20 10:13:00,23.8,20.2,29.42,North,9,7.0,7.0,86,0.00,OVC,,0.00,54.0,WeatherDisplay:10.37,2013-01-20 09:13:00,
2013-01-20 10:18:00,23.9,20.3,29.42,ENE,60,10.4,10.4,86,0.00,OVC,,0.00,54.0,WeatherDisplay:10.37,2013-01-20 09:18:00,
2013-01-20 10:23:00,23.9,20.3,29.42,ENE,66,12.0,12.0,86,0.00,OVC,,0.00,62.0,WeatherDisplay:10.37,2013-01-20 09:23:00,
2013-01-20 10:28:00,23.9,20.3,29.42,NNE,29,9.2,9.2,86,0.00,OVC,,0.00,63.0,WeatherDisplay:10.37,2013-01-20 09:28:00,
2013-01-20 10:33:00,23.9,20.0,29.42,NNE,19,16.1,16.1,85,0.00,OVC,,0.00,62.0,WeatherDisplay:10.37,2013-01-20 09:33:00,
2013-01-20 10:39:00,24.0,20.1,29.42,North,360,16.1,16.1,85,0.00,OVC,,0.00,69.0,WeatherDisplay:10.37,2013-01-20 09:39:00,
2013-01-20 10:44:00,24.0,20.1,29.42,NNE,26,13.8,13.8,85,0.00,OVC,,0.00,76.0,WeatherDisplay:10.37,2013-01-20 09:44:00,
2013-01-20 10:49:00,24.0,20.1,29.42,NNE,27,9.2,9.2,85,0.00,OVC,,0.00,77.0,WeatherDisplay:10.37,2013-01-20 09:49:00,
2013-01-20 10:54:00,24.3,20.4,29.42,NNE,24,10.4,10.4,85,0.00,OVC,,0.00,65.0,WeatherDisplay:10.37,2013-01-20 09:54:00,
2013-01-20 10:59:00,24.4,20.5,29.42,North,349,9.2,9.2,85,0.00,OVC,,0.00,69.0,WeatherDisplay:10.37,2013-01-20 09:59:00,
2013-01-20 11:04:00,24.3,20.4,29.41,NE,37,11.0,11.0,85,0.00,OVC,,0.00,70.0,WeatherDisplay:10.37,2013-01-20 10:04:00,
2013-01-20 11:09:00,24.4,20.5,29.41,ENE,61,11.5,11.5,85,0.00,OVC,,0.00,67.0,WeatherDisplay:10.37,2013-01-20 10:09:00,
2013-01-20 11:15:00,24.4,20.5,29.41,ENE,65,11.5,11.5,85,0.00,BKN,,0.00,63.0,WeatherDisplay:10.37,2013-01-20 10:15:00,
2013-01-20 11:20:00,24.3,20.4,29.41,NNE,30,15.0,15.0,85,0.00,BKN,,0.00,58.0,WeatherDisplay:10.37,2013-01-20 10:20:00,
2013-01-20 11:25:00,24.4,20.5,29.41,NNE,31,9.2,9.2,85,0.00,BKN,,0.00,58.0,WeatherDisplay:10.37,2013-01-20 10:25:00,
2013-01-20 11:30:00,24.3,20.2,29.40,North,360,12.7,12.7,84,0.00,BKN,,0.00,58.0,WeatherDisplay:10.37,2013-01-20 10:30:00,
2013-01-20 11:35:00,24.3,20.4,29.40,North,360,11.5,11.5,85,0.00,BKN,,0.00,67.0,WeatherDisplay:10.37,2013-01-20 10:35:00,
2013-01-20 11:40:00,24.3,20.4,29.40,NNE,21,11.5,11.5,85,0.00,BKN,,0.00,60.0,WeatherDisplay:10.37,2013-01-20 10:40:00,
2013-01-20 11:45:00,24.3,20.4,29.40,NE,34,6.9,6.9,85,0.00,BKN,,0.00,62.0,WeatherDisplay:10.37,2013-01-20 10:45:00,
2013-01-20 11:50:00,24.3,20.4,29.40,NNE,33,16.1,16.1,85,0.00,BKN,,0.00,69.0,WeatherDisplay:10.37,2013-01-20 10:50:00,
2013-01-20 11:55:00,24.4,20.5,29.40,North,5,11.5,11.5,85,0.00,BKN,,0.00,90.0,WeatherDisplay:10.37,2013-01-20 10:55:00,
2013-01-20 12:00:00,24.5,20.4,29.39,NE,46,11.5,11.5,84,0.00,BKN,,0.00,83.0,WeatherDisplay:10.37,2013-01-20 11:00:00,
2013-01-20 12:05:00,24.5,20.4,29.39,NNE,28,11.5,11.5,84,0.00,BKN,,0.00,77.0,WeatherDisplay:10.37,2013-01-20 11:05:00,
2013-01-20 12:10:00,24.6,20.5,29.39,North,5,12.7,12.7,84,0.00,BKN,,0.00,69.0,WeatherDisplay:10.37,2013-01-20 11:10:00,
2013-01-20 12:15:00,24.6,20.5,29.39,NNE,15,7.0,7.0,84,0.00,BKN,,0.00,69.0,WeatherDisplay:10.37,2013-01-20 11:15:00,
2013-01-20 12:20:00,24.7,20.6,29.39,NNE,20,6.9,6.9,84,0.00,BKN,,0.00,69.0,WeatherDisplay:10.37,2013-01-20 11:20:00,
2013-01-20 12:25:00,24.7,20.6,29.39,East,83,9.2,9.2,84,0.00,-SN,,0.00,72.0,WeatherDisplay:10.37,2013-01-20 11:25:00,
2013-01-20 12:30:00,24.7,20.6,29.38,NE,53,12.0,12.0,84,0.00,-SN,,0.00,74.0,WeatherDisplay:10.37,2013-01-20 11:30:00,
2013-01-20 12:35:00,24.8,20.7,29.38,NNE,32,12.7,12.7,84,0.00,-SN,,0.00,69.0,WeatherDisplay:10.37,2013-01-20 11:35:00,
2013-01-20 12:40:00,24.9,20.8,29.37,NNW,337,6.9,6.9,84,0.00,-SN,,0.00,62.0,WeatherDisplay:10.37,2013-01-20 11:40:00,
2013-01-20 12:45:00,24.9,20.8,29.37,North,360,11.5,11.5,84,0.00,-SN,,0.00,62.0,WeatherDisplay:10.37,2013-01-20 11:45:00,
2013-01-20 12:50:00,24.8,20.7,29.37,East,79,19.6,19.6,84,0.00,-SN,,0.00,53.0,WeatherDisplay:10.37,2013-01-20 11:50:00,
2013-01-20 12:56:00,24.7,20.6,29.37,NNE,30,16.1,16.1,84,0.00,-SN,,0.00,49.0,WeatherDisplay:10.37,2013-01-20 11:56:00,
2013-01-20 13:01:00,24.8,20.9,29.37,NE,40,12.7,12.7,85,0.00,-SN,,0.00,53.0,WeatherDisplay:10.37,2013-01-20 12:01:00,
2013-01-20 13:06:00,24.8,21.2,29.37,North,355,6.9,6.9,86,0.00,-SN,,0.00,63.0,WeatherDisplay:10.37,2013-01-20 12:06:00,
2013-01-20 13:12:00,24.8,21.2,29.36,NE,45,4.0,4.0,86,0.00,-SN,,0.00,70.0,WeatherDisplay:10.37,2013-01-20 12:12:00,
2013-01-20 13:17:00,24.8,21.2,29.36,NNE,14,9.2,9.2,86,0.00,-SN,,0.00,67.0,WeatherDisplay:10.37,2013-01-20 12:17:00,
2013-01-20 13:22:00,24.8,21.5,29.35,NE,38,11.5,11.5,87,0.00,-SN,,0.00,63.0,WeatherDisplay:10.37,2013-01-20 12:22:00,
2013-01-20 13:27:00,24.7,21.4,29.35,NNE,32,16.1,16.1,87,0.00,-SN,,0.00,53.0,WeatherDisplay:10.37,2013-01-20 12:27:00,
2013-01-20 13:32:00,24.6,21.3,29.35,ENE,62,11.5,11.5,87,0.00,-SN,,0.00,49.0,WeatherDisplay:10.37,2013-01-20 12:32:00,
2013-01-20 13:37:00,24.6,21.6,29.35,NNE,32,12.7,12.7,88,0.00,-SN,,0.00,47.0,WeatherDisplay:10.37,2013-01-20 12:37:00,
2013-01-20 13:42:00,24.5,21.5,29.35,NNE,20,10.4,10.4,88,0.00,-SN,,0.00,40.0,WeatherDisplay:10.37,2013-01-20 12:42:00,
2013-01-20 13:48:00,24.5,21.7,29.34,NE,42,6.9,6.9,89,0.00,-SN,,0.00,39.0,WeatherDisplay:10.37,2013-01-20 12:48:00,
2013-01-20 13:53:00,24.5,21.7,29.34,NNE,21,3.5,3.5,89,0.00,-SN,,0.00,39.0,WeatherDisplay:10.37,2013-01-20 12:53:00,
2013-01-20 13:58:00,24.5,21.7,29.34,NNE,24,13.8,13.8,89,0.00,-SN,,0.00,40.0,WeatherDisplay:10.37,2013-01-20 12:58:00,
2013-01-20 14:03:00,24.4,21.6,29.34,North,5,5.8,5.8,89,0.00,-SN,,0.00,37.0,WeatherDisplay:10.37,2013-01-20 13:03:00,
2013-01-20 14:08:00,24.4,21.6,29.34,North,360,9.2,9.2,89,0.00,-SN,,0.00,37.0,WeatherDisplay:10.37,2013-01-20 13:08:00,
2013-01-20 14:13:00,24.4,21.9,29.34,NNE,13,12.7,12.7,90,0.00,-SN,,0.00,32.0,WeatherDisplay:10.37,2013-01-20 13:13:00,
2013-01-20 14:18:00,24.4,21.9,29.34,NNW,327,5.8,5.8,90,0.00,-SN,,0.00,30.0,WeatherDisplay:10.37,2013-01-20 13:18:00,
2013-01-20 14:23:00,24.4,21.9,29.34,NNE,28,11.5,11.5,90,0.00,-SN,,0.00,30.0,WeatherDisplay:10.37,2013-01-20 13:23:00,
2013-01-20 14:28:00,24.5,22.0,29.33,NNE,19,11.5,11.5,90,0.00,-SN,,0.00,30.0,WeatherDisplay:10.37,2013-01-20 13:28:00,
2013-01-20 14:34:00,24.5,22.0,29.33,NNW,327,15.0,15.0,90,0.00,-SN,,0.00,28.0,WeatherDisplay:10.37,2013-01-20 13:34:00,
2013-01-20 14:39:00,24.4,22.2,29.33,NNE,26,12.7,12.7,91,0.00,-SN,,0.00,28.0,WeatherDisplay:10.37,2013-01-20 13:39:00,
2013-01-20 14:44:00,24.5,22.2,29.33,North,355,9.2,9.2,91,0.00,-SN,,0.00,26.0,WeatherDisplay:10.37,2013-01-20 13:44:00,
2013-01-20 14:49:00,24.5,22.2,29.33,NE,47,13.8,13.8,91,0.01,-SN,,0.01,23.0,WeatherDisplay:10.37,2013-01-20 13:49:00,
2013-01-20 14:55:00,24.6,22.3,29.33,North,1,12.7,12.7,91,0.01,-SN,,0.01,21.0,WeatherDisplay:10.37,2013-01-20 13:55:00,
2013-01-20 15:00:00,24.7,22.4,29.33,North,360,10.4,10.4,91,0.01,-SN,,0.01,19.0,WeatherDisplay:10.37,2013-01-20 14:00:00,
2013-01-20 15:05:00,24.7,22.4,29.33,East,101,6.0,6.0,91,0.01,-SN,,0.01,19.0,WeatherDisplay:10.37,2013-01-20 14:05:00,
2013-01-20 15:10:00,24.8,22.5,29.33,NE,49,11.5,11.5,91,0.01,-SN,,0.01,18.0,WeatherDisplay:10.37,2013-01-20 14:10:00,
2013-01-20 15:15:00,24.9,22.6,29.33,NNE,19,11.5,11.5,91,0.02,-SN,,0.02,16.0,WeatherDisplay:10.37,2013-01-20 14:15:00,
2013-01-20 15:21:00,24.9,22.9,29.33,North,360,5.8,5.8,92,0.02,-SN,,0.02,12.0,WeatherDisplay:10.37,2013-01-20 14:21:00,
2013-01-20 15:26:00,24.9,22.9,29.33,ENE,59,5.8,5.8,92,0.02,-SN,,0.02,12.0,WeatherDisplay:10.37,2013-01-20 14:26:00,
2013-01-20 15:31:00,25.0,23.0,29.33,NNE,30,6.9,6.9,92,0.02,-SN,,0.02,11.0,WeatherDisplay:10.37,2013-01-20 14:31:00,
2013-01-20 15:36:00,25.1,23.1,29.33,NNE,13,13.8,13.8,92,0.02,-SN,,0.02,7.0,WeatherDisplay:10.37,2013-01-20 14:36:00,
2013-01-20 15:41:00,25.2,23.2,29.33,NNE,32,15.0,15.0,92,0.02,-SN,,0.02,5.0,WeatherDisplay:10.37,2013-01-20 14:41:00,
2013-01-20 15:46:00,25.2,23.2,29.32,NNE,31,6.9,6.9,92,0.02,-SN,,0.02,5.0,WeatherDisplay:10.37,2013-01-20 14:46:00,
2013-01-20 15:51:00,25.2,23.2,29.32,NNE,25,6.0,6.0,92,0.01,-SN,,0.02,0.0,WeatherDisplay:10.37,2013-01-20 14:51:00,
2013-01-20 15:56:00,25.3,23.3,29.33,North,350,10.4,10.4,92,0.01,-SN,,0.02,5.0,WeatherDisplay:10.37,2013-01-20 14:56:00,
2013-01-20 16:02:00,25.3,23.3,29.32,NW,322,10.4,10.4,92,0.01,-SN,,0.02,5.0,WeatherDisplay:10.37,2013-01-20 15:02:00,
2013-01-20 16:07:00,25.4,23.4,29.32,NE,53,7.0,7.0,92,0.02,-SN,,0.02,5.0,WeatherDisplay:10.37,2013-01-20 15:07:00,
2013-01-20 16:12:00,25.5,23.8,29.32,North,9,8.0,8.0,93,0.01,-SN,,0.02,0.0,WeatherDisplay:10.37,2013-01-20 15:12:00,
2013-01-20 16:17:00,25.5,23.8,29.32,NE,56,8.1,8.1,93,0.01,-SN,,0.02,0.0,WeatherDisplay:10.37,2013-01-20 15:17:00,
2013-01-20 16:23:00,25.5,23.5,29.32,ENE,60,10.0,10.0,92,0.01,-SN,,0.02,0.0,WeatherDisplay:10.37,2013-01-20 15:23:00,
2013-01-20 16:28:00,25.6,23.6,29.32,NE,42,10.4,10.4,92,0.01,-SN,,0.02,0.0,WeatherDisplay:10.37,2013-01-20 15:28:00,
2013-01-20 16:33:00,25.5,23.5,29.33,North,11,10.4,10.4,92,0.01,-SN,,0.02,0.0,WeatherDisplay:10.37,2013-01-20 15:33:00,
2013-01-20 16:38:00,25.5,23.8,29.33,NE,36,12.7,12.7,93,0.01,-SN,,0.02,0.0,WeatherDisplay:10.37,2013-01-20 15:38:00,
2013-01-20 16:43:00,25.5,23.8,29.33,NE,51,5.8,5.8,93,0.01,-SN,,0.02,0.0,WeatherDisplay:10.37,2013-01-20 15:43:00,
2013-01-20 16:49:00,25.5,23.8,29.33,NNE,15,11.5,11.5,93,0.01,-SN,,0.02,0.0,WeatherDisplay:10.37,2013-01-20 15:49:00,
2013-01-20 16:54:00,25.5,23.8,29.33,North,11,10.4,10.4,93,0.01,-SN,,0.02,0.0,WeatherDisplay:10.37,2013-01-20 15:54:00,
2013-01-20 16:59:00,25.6,23.9,29.33,NE,37,9.2,9.2,93,0.01,-SN,,0.02,0.0,WeatherDisplay:10.37,2013-01-20 15:59:00,
2013-01-20 17:04:00,25.6,23.9,29.33,NE,44,11.5,11.5,93,0.00,-SN,,0.02,0.0,WeatherDisplay:10.37,2013-01-20 16:04:00,
2013-01-20 17:09:00,25.6,23.9,29.32,ENE,59,9.2,9.2,93,0.00,-SN,,0.02,0.0,WeatherDisplay:10.37,2013-01-20 16:09:00,
2013-01-20 17:14:00,25.6,23.9,29.32,NE,42,9.0,9.0,93,0.01,RA,,0.03,0.0,WeatherDisplay:10.37,2013-01-20 16:14:00,
2013-01-20 17:20:00,25.6,23.9,29.33,NNE,24,11.5,11.5,93,0.01,RA,,0.03,0.0,WeatherDisplay:10.37,2013-01-20 16:20:00,
2013-01-20 17:25:00,25.7,24.0,29.32,NNE,21,16.1,16.1,93,0.01,BKN,,0.03,0.0,WeatherDisplay:10.37,2013-01-20 16:25:00,
2013-01-20 17:30:00,25.7,24.0,29.33,ENE,65,10.0,10.0,93,0.02,RA,,0.04,0.0,WeatherDisplay:10.37,2013-01-20 16:30:00,
2013-01-20 17:35:00,25.7,24.0,29.33,SSE,167,6.9,6.9,93,0.02,-SG,,0.04,0.0,WeatherDisplay:10.37,2013-01-20 16:35:00,
2013-01-20 17:40:00,25.8,24.1,29.32,NE,34,13.8,13.8,93,0.02,-SG,,0.04,0.0,WeatherDisplay:10.37,2013-01-20 16:40:00,
2013-01-20 17:46:00,25.8,24.1,29.32,NE,49,10.4,10.4,93,0.02,-SG,,0.05,0.0,WeatherDisplay:10.37,2013-01-20 16:46:00,
2013-01-20 17:51:00,25.8,24.1,29.32,NNE,16,16.1,16.1,93,0.02,-SG,,0.05,0.0,WeatherDisplay:10.37,2013-01-20 16:51:00,
2013-01-20 17:56:00,25.8,24.1,29.32,ENE,63,11.5,11.5,93,0.02,-SG,,0.05,0.0,WeatherDisplay:10.37,2013-01-20 16:56:00,
2013-01-20 18:01:00,25.8,24.1,29.33,NE,42,11.5,11.5,93,0.02,-SG,,0.05,0.0,WeatherDisplay:10.37,2013-01-20 17:01:00,
2013-01-20 18:06:00,25.9,24.2,29.33,East,80,6.9,6.9,93,0.02,-SG,,0.05,0.0,WeatherDisplay:10.37,2013-01-20 17:06:00,
2013-01-20 18:11:00,26.0,24.3,29.33,North,5,11.5,11.5,93,0.02,-SG,,0.05,0.0,WeatherDisplay:10.37,2013-01-20 17:11:00,
2013-01-20 18:16:00,25.9,24.2,29.33,NNE,31,11.5,11.5,93,0.02,-SG,,0.05,0.0,WeatherDisplay:10.37,2013-01-20 17:16:00,
2013-01-20 18:21:00,26.0,24.3,29.33,ENE,72,14.0,14.0,93,0.02,-SG,,0.06,0.0,WeatherDisplay:10.37,2013-01-20 17:21:00,
2013-01-20 18:26:00,26.0,24.3,29.33,North,351,15.0,15.0,93,0.02,-SG,,0.06,0.0,WeatherDisplay:10.37,2013-01-20 17:26:00,
2013-01-20 18:31:00,26.1,24.4,29.33,ENE,57,11.5,11.5,93,0.02,-SG,,0.06,0.0,WeatherDisplay:10.37,2013-01-20 17:31:00,
2013-01-20 18:37:00,26.0,24.0,29.33,East,89,11.5,11.5,92,0.02,-SG,,0.06,0.0,WeatherDisplay:10.37,2013-01-20 17:37:00,
2013-01-20 18:42:00,26.1,24.1,29.33,NE,51,11.5,11.5,92,0.02,-SG,,0.06,0.0,WeatherDisplay:10.37,2013-01-20 17:42:00,
2013-01-20 18:47:00,26.1,24.1,29.33,NNE,28,8.1,8.1,92,0.02,-SG,,0.06,0.0,WeatherDisplay:10.37,2013-01-20 17:47:00,
2013-01-20 18:52:00,26.1,24.1,29.33,NE,37,11.5,11.5,92,0.02,-SG,,0.06,0.0,WeatherDisplay:10.37,2013-01-20 17:52:00,
2013-01-20 18:57:00,26.2,24.2,29.33,NE,50,4.6,4.6,92,0.02,-SG,,0.06,0.0,WeatherDisplay:10.37,2013-01-20 17:57:00,
2013-01-20 19:02:00,26.2,24.2,29.33,ESE,113,5.8,5.8,92,0.02,-SG,,0.06,0.0,WeatherDisplay:10.37,2013-01-20 18:02:00,
2013-01-20 19:07:00,26.2,24.2,29.33,NNE,28,10.4,10.4,92,0.02,-SG,,0.06,0.0,WeatherDisplay:10.37,2013-01-20 18:07:00,
2013-01-20 19:12:00,26.2,24.2,29.32,NE,38,15.0,15.0,92,0.02,-SG,,0.06,0.0,WeatherDisplay:10.37,2013-01-20 18:12:00,
2013-01-20 19:17:00,26.2,24.2,29.32,NNW,344,10.4,10.4,92,0.02,-SG,,0.06,0.0,WeatherDisplay:10.37,2013-01-20 18:17:00,
2013-01-20 19:22:00,26.2,24.2,29.32,NE,42,8.1,8.1,92,0.01,-SN,,0.06,0.0,WeatherDisplay:10.37,2013-01-20 18:22:00,
2013-01-20 19:27:00,26.3,24.3,29.33,East,98,6.9,6.9,92,0.02,-SN,,0.07,0.0,WeatherDisplay:10.37,2013-01-20 18:27:00,
2013-01-20 19:32:00,26.4,24.4,29.33,NE,48,10.4,10.4,92,0.02,-SN,,0.07,0.0,WeatherDisplay:10.37,2013-01-20 18:32:00,
2013-01-20 19:37:00,26.4,24.4,29.33,NE,55,11.5,11.5,92,0.02,-SN,,0.07,0.0,WeatherDisplay:10.37,2013-01-20 18:37:00,
2013-01-20 19:42:00,26.5,24.5,29.33,NNE,15,9.2,9.2,92,0.02,-SN,,0.07,0.0,WeatherDisplay:10.37,2013-01-20 18:42:00,
2013-01-20 19:47:00,26.5,24.5,29.33,NE,55,10.4,10.4,92,0.01,-SN,,0.07,0.0,WeatherDisplay:10.37,2013-01-20 18:47:00,
2013-01-20 19:53:00,26.5,24.8,29.33,NE,43,11.5,11.5,93,0.01,-SN,,0.08,0.0,WeatherDisplay:10.37,2013-01-20 18:53:00,
2013-01-20 19:58:00,26.6,24.8,29.33,ENE,67,11.0,11.0,93,0.02,-SN,,0.08,0.0,WeatherDisplay:10.37,2013-01-20 18:58:00,
2013-01-20 20:03:00,26.5,24.8,29.33,North,360,10.4,10.4,93,0.02,-SN,,0.08,0.0,WeatherDisplay:10.37,2013-01-20 19:03:00,
2013-01-20 20:08:00,26.6,24.8,29.33,ENE,76,11.5,11.5,93,0.02,-SN,,0.08,0.0,WeatherDisplay:10.37,2013-01-20 19:08:00,
2013-01-20 20:13:00,26.6,24.8,29.33,NE,56,10.4,10.4,93,0.02,-SN,,0.08,0.0,WeatherDisplay:10.37,2013-01-20 19:13:00,
2013-01-20 20:18:00,26.6,24.8,29.33,NE,53,12.7,12.7,93,0.02,-SN,,0.08,0.0,WeatherDisplay:10.37,2013-01-20 19:18:00,
2013-01-20 20:23:00,26.7,24.9,29.33,NNE,28,6.9,6.9,93,0.01,-SN,,0.08,0.0,WeatherDisplay:10.37,2013-01-20 19:23:00,
2013-01-20 20:28:00,26.7,24.9,29.33,NE,38,5.8,5.8,93,0.01,-SN,,0.08,0.0,WeatherDisplay:10.37,2013-01-20 19:28:00,
2013-01-20 20:33:00,26.7,24.9,29.33,East,80,10.4,10.4,93,0.02,-SN,,0.09,0.0,WeatherDisplay:10.37,2013-01-20 19:33:00,
2013-01-20 20:39:00,26.8,25.0,29.33,NE,36,11.5,11.5,93,0.02,-SN,,0.09,0.0,WeatherDisplay:10.37,2013-01-20 19:39:00,
2013-01-20 20:44:00,26.8,25.0,29.33,ENE,74,14.0,14.0,93,0.02,-SN,,0.09,0.0,WeatherDisplay:10.37,2013-01-20 19:44:00,
2013-01-20 20:49:00,26.8,25.0,29.33,NE,41,12.7,12.7,93,0.02,-SN,,0.09,0.0,WeatherDisplay:10.37,2013-01-20 19:49:00,
2013-01-20 20:54:00,26.9,25.1,29.33,NNE,15,11.5,11.5,93,0.01,-SN,,0.09,0.0,WeatherDisplay:10.37,2013-01-20 19:54:00,
2013-01-20 20:59:00,26.9,25.1,29.33,NE,55,10.4,10.4,93,0.01,-SN,,0.09,0.0,WeatherDisplay:10.37,2013-01-20 19:59:00,
2013-01-20 21:04:00,26.9,25.1,29.33,NNE,13,8.1,8.1,93,0.02,-SN,,0.09,0.0,WeatherDisplay:10.37,2013-01-20 20:04:00,
2013-01-20 21:09:00,27.0,25.2,29.33,NE,41,4.6,4.6,93,0.02,-SN,,0.09,0.0,WeatherDisplay:10.37,2013-01-20 20:09:00,
2013-01-20 21:14:00,27.1,25.6,29.33,ENE,74,6.0,6.0,94,0.02,-SN,,0.09,0.0,WeatherDisplay:10.37,2013-01-20 20:14:00,
2013-01-20 21:19:00,27.3,25.8,29.33,NE,44,5.0,5.0,94,0.02,-SN,,0.09,0.0,WeatherDisplay:10.37,2013-01-20 20:19:00,
2013-01-20 21:24:00,27.4,25.9,29.33,NE,55,8.0,8.0,94,0.02,-SN,,0.09,0.0,WeatherDisplay:10.37,2013-01-20 20:24:00,
2013-01-20 21:29:00,27.5,26.0,29.33,NNE,19,9.2,9.2,94,0.02,-SN,,0.09,0.0,WeatherDisplay:10.37,2013-01-20 20:29:00,
2013-01-20 21:34:00,27.6,26.1,29.33,NE,49,4.6,4.6,94,0.01,-SN,,0.09,0.0,WeatherDisplay:10.37,2013-01-20 20:34:00,
2013-01-20 21:39:00,27.7,26.2,29.33,NE,34,9.2,9.2,94,0.01,-SN,,0.09,0.0,WeatherDisplay:10.37,2013-01-20 20:39:00,
2013-01-20 21:45:00,27.8,26.3,29.33,NE,56,12.0,12.0,94,0.01,-SN,,0.09,0.0,WeatherDisplay:10.37,2013-01-20 20:45:00,
2013-01-20 21:50:00,27.8,26.3,29.33,NNE,13,9.2,9.2,94,0.01,-SN,,0.09,0.0,WeatherDisplay:10.37,2013-01-20 20:50:00,
2013-01-20 21:55:00,27.8,26.3,29.33,ENE,60,3.5,3.5,94,0.02,-SN,,0.10,0.0,WeatherDisplay:10.37,2013-01-20 20:55:00,
2013-01-20 22:00:00,27.9,26.4,29.33,ENE,77,3.5,3.5,94,0.02,-SN,,0.10,0.0,WeatherDisplay:10.37,2013-01-20 21:00:00,
2013-01-20 22:05:00,28.0,26.5,29.33,NE,51,11.5,11.5,94,0.01,-SN,,0.10,0.0,WeatherDisplay:10.37,2013-01-20 21:05:00,
2013-01-20 22:10:00,28.0,26.5,29.34,NE,56,5.0,5.0,94,0.01,-SN,,0.10,0.0,WeatherDisplay:10.37,2013-01-20 21:10:00,
2013-01-20 22:16:00,28.1,26.6,29.34,ENE,75,4.6,4.6,94,0.01,-SN,,0.10,0.0,WeatherDisplay:10.37,2013-01-20 21:16:00,
2013-01-20 22:21:00,28.1,26.6,29.34,ENE,58,5.0,5.0,94,0.01,-SN,,0.10,0.0,WeatherDisplay:10.37,2013-01-20 21:21:00,
2013-01-20 22:26:00,28.2,26.7,29.33,ENE,74,6.9,6.9,94,0.01,-SN,,0.10,0.0,WeatherDisplay:10.37,2013-01-20 21:26:00,
2013-01-20 22:31:00,28.2,26.7,29.33,NE,49,3.5,3.5,94,0.02,-SN,,0.11,0.0,WeatherDisplay:10.37,2013-01-20 21:31:00,
2013-01-20 22:37:00,28.2,26.7,29.34,ENE,65,4.0,4.0,94,0.02,-SN,,0.11,0.0,WeatherDisplay:10.37,2013-01-20 21:37:00,
2013-01-20 22:42:00,28.3,26.8,29.34,NE,52,2.3,2.3,94,0.02,-SN,,0.11,0.0,WeatherDisplay:10.37,2013-01-20 21:42:00,
2013-01-20 22:47:00,28.3,26.8,29.34,NNE,21,3.5,3.5,94,0.02,-SN,,0.11,0.0,WeatherDisplay:10.37,2013-01-20 21:47:00,
2013-01-20 22:52:00,28.4,26.9,29.34,East,82,3.5,3.5,94,0.02,-SN,,0.11,0.0,WeatherDisplay:10.37,2013-01-20 21:52:00,
2013-01-20 22:58:00,28.4,26.9,29.34,ENE,69,10.4,10.4,94,0.01,-SN,,0.11,0.0,WeatherDisplay:10.37,2013-01-20 21:58:00,
2013-01-20 23:03:00,28.5,27.0,29.34,NNE,24,12.7,12.7,94,0.01,-SN,,0.11,0.0,WeatherDisplay:10.37,2013-01-20 22:03:00,
2013-01-20 23:08:00,28.5,27.0,29.34,ENE,72,10.4,10.4,94,0.01,-SN,,0.11,0.0,WeatherDisplay:10.37,2013-01-20 22:08:00,
2013-01-20 23:13:00,28.6,27.1,29.34,East,80,4.0,4.0,94,0.01,-SN,,0.11,0.0,WeatherDisplay:10.37,2013-01-20 22:13:00,
2013-01-20 23:18:00,28.7,27.2,29.34,East,80,5.8,5.8,94,0.01,-SN,,0.11,0.0,WeatherDisplay:10.37,2013-01-20 22:18:00,
2013-01-20 23:23:00,28.7,27.2,29.35,ENE,71,4.6,4.6,94,0.02,-SN,,0.12,0.0,WeatherDisplay:10.37,2013-01-20 22:23:00,
2013-01-20 23:28:00,28.8,27.3,29.35,NE,46,4.6,4.6,94,0.01,-SN,,0.12,0.0,WeatherDisplay:10.37,2013-01-20 22:28:00,
2013-01-20 23:33:00,28.9,27.4,29.35,ESE,113,4.6,4.6,94,0.01,-SN,,0.12,0.0,WeatherDisplay:10.37,2013-01-20 22:33:00,
2013-01-20 23:39:00,29.0,27.5,29.36,East,95,11.5,11.5,94,0.01,-SN,,0.12,0.0,WeatherDisplay:10.37,2013-01-20 22:39:00,
2013-01-20 23:44:00,29.1,27.6,29.36,East,86,5.0,5.0,94,0.01,-SN,,0.12,0.0,WeatherDisplay:10.37,2013-01-20 22:44:00,
2013-01-20 23:49:00,29.2,27.7,29.36,East,87,5.8,5.8,94,0.01,-SN,,0.12,0.0,WeatherDisplay:10.37,2013-01-20 22:49:00,
2013-01-20 23:54:00,29.3,27.8,29.36,ENE,73,11.5,11.5,94,0.02,-SN,,0.13,0.0,WeatherDisplay:10.37,2013-01-20 22:54:00,
2013-01-20 23:59:00,29.4,27.9,29.36,North,360,6.9,6.9,94,0.02,-SN,,0.13,0.0,WeatherDisplay:10.37,2013-01-20 22:59:00,